Home > Time Zones > World Clock > Weather > Macau > Macau > Past weeks

Flag for Macau Weather past 2 weeks in Macau, Macau

Now
82 °F

Scattered clouds.


Feels Like: 91 °F
Forecast: 80 / 86 °F
Wind: 1 mph from North

Location: Taipa

Current Time: Aug 29, 2015 at 9:16:15 AM

Latest Report: Aug 29, 2015 at 8:30 AM


Visibility: N/A

Pressure: 29.71 "Hg

Humidity: 84%

Dew point: 77 °F

Location of MacauLocation

Historic Weather in Macau — Graph

°F

Macau temperature yesterday

Maximum temperature yesterday: 88 °F (at 12:00 PM)
Minimum temperature yesterday: 79 °F (at 1:45 PM)
Average temperature yesterday: 82 °F

Past Weeks' High & Low Weather Summary

 TemperatureHumidityPressure
High93 °F (Aug 23, 3:00 PM)94% (Aug 14, 9:00 AM)29.83 "Hg (Aug 14, 9:00 AM)
Low77 °F (Aug 15, 10:00 AM)49% (Aug 25, 1:00 PM)29.47 "Hg (Aug 22, 2:30 PM)
Average85 °F78%29.68 "Hg
* Reported Aug 14 8:00 AM — Aug 29 8:00 AM, Macau, Weather by CustomWeather, © 2015

Note: Actual official high and low records may vary slightly from our data, if they occured in-between our weather recording intervals... More about our weather records

Advertising

Macau weather history for previous 24 hours

 ConditionsComfort  
Time TempWeatherWind HumidityBarometerVisibility
8:00 AM
Sat, Aug 29
81 °FScattered clouds.2 mph84%29.68 "HgN/A
7:30 AM79 °FScattered clouds.1 mph89%29.68 "HgN/A
7:00 AM79 °FScattered clouds.3 mph89%29.68 "HgN/A
6:30 AM79 °FSprinkles. Scattered clouds.6 mph84%29.68 "Hg6 mi
6:00 AM79 °FSprinkles. Passing clouds.14 mph89%29.68 "Hg4 mi
5:30 AM79 °FSprinkles. Passing clouds.9 mph84%29.68 "HgN/A
5:00 AM82 °FPassing clouds.3 mph84%29.68 "HgN/A
4:30 AM82 °FPassing clouds.3 mph84%29.68 "HgN/A
4:00 AM82 °FPassing clouds.1 mph84%29.68 "HgN/A
3:30 AM82 °FPassing clouds.2 mph84%29.68 "HgN/A
3:00 AM82 °FPassing clouds.5 mph84%29.68 "HgN/A
2:30 AM82 °FPassing clouds.6 mph84%29.68 "HgN/A
2:00 AM82 °FPassing clouds.7 mph84%29.68 "HgN/A
1:30 AM82 °FPassing clouds.8 mph84%29.68 "HgN/A
1:00 AM82 °FPassing clouds.6 mph84%29.71 "HgN/A
12:30 AM82 °FPassing clouds.6 mph84%29.71 "HgN/A
12:00 AM82 °FPassing clouds.5 mph84%29.71 "HgN/A
11:30 PM
Fri, Aug 28
82 °FPassing clouds.5 mph84%29.71 "HgN/A
11:00 PM82 °FPassing clouds.5 mph84%29.71 "HgN/A
10:30 PM82 °FPassing clouds.5 mph79%29.74 "HgN/A
10:00 PM82 °FPassing clouds.5 mph79%29.71 "HgN/A
9:30 PM82 °FPassing clouds.3 mph84%29.71 "HgN/A
9:00 PM82 °FPassing clouds.7 mph84%29.71 "HgN/A
8:30 PM82 °FPassing clouds.7 mph79%29.71 "HgN/A
8:00 PM82 °FPassing clouds.3 mph84%29.68 "HgN/A
7:30 PM81 °FPassing clouds.5 mph94%29.68 "HgN/A
7:00 PM81 °FSprinkles. Passing clouds.8 mph89%29.68 "HgN/A
6:30 PM81 °FSprinkles. Passing clouds.9 mph84%29.68 "HgN/A
6:00 PM81 °FScattered clouds.6 mph84%29.68 "HgN/A
5:30 PM81 °FPassing clouds.9 mph89%29.65 "HgN/A
5:00 PM81 °FSprinkles. Passing clouds.7 mph89%29.65 "HgN/A
4:30 PM81 °FSprinkles. Passing clouds.7 mph89%29.65 "HgN/A
4:00 PM82 °FScattered clouds.6 mph79%29.65 "HgN/A
3:30 PM81 °FScattered clouds.5 mph84%29.65 "HgN/A
3:00 PM79 °FSprinkles. Scattered clouds.5 mph94%29.68 "HgN/A
2:30 PM79 °FRain showers. Passing clouds.6 mph94%29.68 "Hg3 mi
2:00 PM79 °FLots of rain. Passing clouds.5 mph94%29.68 "Hg1 mi
1:45 PM79 °FLots of rain. Passing clouds.7 mph94%29.68 "Hg1 mi
1:30 PM81 °FRain showers. Scattered clouds.15 mph89%29.68 "HgN/A
1:00 PM86 °FScattered clouds.7 mph75%29.68 "HgN/A
12:30 PM88 °FScattered clouds.7 mph70%29.71 "HgN/A
12:00 PM88 °FPassing clouds.7 mph70%29.71 "HgN/A
11:00 AM86 °FPassing clouds.6 mph70%29.74 "HgN/A
10:30 AM86 °FPassing clouds.5 mph70%29.74 "HgN/A
10:00 AM86 °FPassing clouds.5 mph66%29.74 "HgN/A
9:30 AM86 °FPassing clouds.3 mph66%29.74 "HgN/A
9:00 AM86 °FPassing clouds.2 mph66%29.74 "HgN/A
Weather by CustomWeather, © 2015

See weather overviewHow to use our weather pages